Volver al catálogo

DELTA 1 DEB

ActivoSSO
NORAD 13580·DEBRIS·🇺🇸 United States

Lanzado Mar 5, 1978 desde Vandenberg Space Force Base

Loading…

Próximos Pases (próximas 24 horas)

TLE

ActualizadoSource: Space-Track

Época: Sep 11, 2026, 08:26 UTC

1 13580U 78026FT  26254.35191603  .00000632  00000-0  20518-3 0  9997
2 13580  98.5686 289.5900 0046179  35.5404 324.8846 14.41676897694177

Sigue DELTA 1 DEB en tiempo real con AllMySat

Download on the App Store